Location: ??????????
(54.8537°N, 38.8755°E)
Time: 23:34:19
(UTC+00:00)

Tiros 1 - Pass Details

Date: 15 September 2024
Orbit: 623 x 654 km, 48.4° (Epoch: 09 October)

Event Time Altitude Azimuth Distance (km) Brightness Sun altitude
Rises 14:53:40 0° 244° (WSW) 2,899 12.0 5.9°
Reaches altitude 10° 14:56:06 10° 236° (SW) 1,996 10.9 5.6°
Maximum altitude 15:00:16 35° 171° (S) 1,017 8.2 5.0°
Drops below altitude 10° 15:04:28 10° 106° (ESE) 2,012 9.1 4.3°
Sets 15:06:56 0° 97° (E) 2,926 9.8 4.0°
